FW0420 Weather Reports


Display with metric or nautical units.
time (UTC)temp
F
wind
direction
speed
MPH
gust
MPH
rain 1hr
in
rain 24hr
in
rain mn
in
humidity
%
barometer
mb
20260510230010 55 360 6.0 15.0 0.00 0.00 0.00 37 1017.1
20260510224507 55 360 6.0 13.0 0.00 0.00 0.00 38 1017.0
20260510223006 55 360 8.0 18.0 0.00 0.00 0.00 36 1016.9
20260510221504 56 360 10.0 17.0 0.00 0.00 0.00 36 1016.7
20260510220003 56 360 4.0 14.0 0.00 0.00 0.00 35 1016.6
20260510214502 56 360 7.0 15.0 0.00 0.00 0.00 35 1016.5
20260510213002 56 360 8.0 15.0 0.00 0.00 0.00 36 1016.2
20260510211501 56 360 4.0 11.0 0.00 0.00 0.00 37 1016.1
20260510210100 56 360 9.0 16.0 0.00 0.00 0.00 35 1016.0
20260510204603 56 360 8.0 17.0 0.00 0.00 0.00 34 1016.0
20260510203059 56 360 7.0 14.0 0.00 0.00 0.00 33 1016.1
20260510201609 56 360 4.0 16.0 0.00 0.00 0.00 37 1016.3
20260510200057 56 360 8.0 20.0 0.00 0.00 0.00 34 1016.3
20260510194604 57 360 13.0 19.0 0.00 0.00 0.00 40 1016.5
20260510193058 55 277 10.0 15.0 0.00 0.00 0.00 35 1016.4
20260510191558 56 212 3.0 15.0 0.00 0.00 0.00 39 1016.5
20260510190052 56 277 9.0 14.0 0.00 0.13 0.00 35 1016.6
20260510184558 55 337 4.0 11.0 0.00 0.13 0.00 36 1016.3
20260510183050 55 332 7.0 12.0 0.00 0.13 0.00 39 1016.3
20260510181604 56 302 6.0 14.0 0.00 0.13 0.00 37 1016.2
20260510174545 54 360 8.0 16.0 0.00 0.13 0.00 37 1015.9
20260510173043 55 360 11.0 17.0 0.00 0.13 0.00 37 1016.0
20260510171548 55 360 4.0 12.0 0.00 0.13 0.00 37 1016.0
20260510170040 54 269 5.0 14.0 0.00 0.13 0.00 40 1016.1
20260510164541 53 326 1.0 18.0 0.00 0.13 0.00 42 1016.0
20260510163036 54 331 7.0 17.0 0.00 0.13 0.00 42 1016.0
20260510161534 54 45 11.0 18.0 0.00 0.13 0.00 42 1016.0
20260510160037 52 340 3.0 18.0 0.00 0.13 0.00 42 1015.9
20260510154531 52 273 11.0 17.0 0.00 0.13 0.00 42 1015.7
20260510153026 53 318 4.0 13.0 0.00 0.13 0.00 42 1015.6
20260510151531 52 360 7.0 14.0 0.00 0.13 0.00 42 1015.6
20260510150020 52 360 3.0 15.0 0.00 0.13 0.00 44 1015.4
20260510144517 51 360 7.0 15.0 0.00 0.13 0.00 46 1015.3
20260510143011 50 360 8.0 15.0 0.00 0.13 0.00 44 1015.2
20260510141511 50 360 4.0 12.0 0.00 0.13 0.00 48 1015.1
20260510140003 49 360 4.0 13.0 0.00 0.13 0.00 44 1014.9
20260510134601 49 360 4.0 11.0 0.00 0.13 0.00 44 1014.8
20260510133056 48 360 8.0 12.0 0.00 0.13 0.00 47 1014.8
20260510131551 48 360 3.0 11.0 0.00 0.13 0.00 47 1014.6
20260510130046 46 360 5.0 10.0 0.00 0.13 0.00 51 1014.5
20260510124541 46 360 5.0 9.0 0.00 0.13 0.00 58 1014.4
20260510123038 45 360 2.0 8.0 0.00 0.13 0.00 57 1014.2
20260510121533 44 360 3.0 8.0 0.00 0.13 0.00 59 1014.1
20260510120028 43 350 5.0 8.0 0.00 0.13 0.00 61 1013.7
20260510114528 42 316 3.0 8.0 0.00 0.13 0.00 63 1013.6
20260510113024 41 350 2.0 5.0 0.00 0.13 0.00 64 1013.6
20260510111521 39 319 3.0 5.0 0.00 0.13 0.00 68 1013.4
20260510110018 38 344 1.0 3.0 0.00 0.13 0.00 74 1013.1
20260510104515 37 344 0.0 0.0 0.00 0.13 0.00 76 1012.9
20260510103012 37 360 0.0 2.0 0.00 0.13 0.00 73 1012.7
20260510101508 39 360 1.0 3.0 0.00 0.13 0.00 69 1012.6
20260510100005 39 360 1.0 4.0 0.00 0.13 0.00 68 1012.4
20260510094514 39 360 2.0 4.0 0.00 0.13 0.00 69 1012.2
20260510093002 40 360 1.0 5.0 0.00 0.13 0.00 69 1012.0
20260510091559 40 360 2.0 8.0 0.00 0.13 0.00 69 1011.8
20260510090058 40 360 2.0 4.0 0.00 0.13 0.00 71 1011.5
20260510084553 40 360 1.0 4.0 0.00 0.13 0.00 69 1011.1
20260510083104 41 360 3.0 9.0 0.00 0.13 0.00 68 1011.1
20260510081548 41 360 5.0 9.0 0.00 0.13 0.00 68 1010.8
20260510080045 42 360 4.0 8.0 0.00 0.13 0.00 67 1010.5
20260510074546 42 360 3.0 6.0 0.00 0.13 0.00 65 1010.3
20260510073049 42 360 3.0 6.0 0.00 0.13 0.00 65 1010.1
20260510071539 43 360 2.0 6.0 0.00 0.13 0.00 64 1009.8
20260510070033 43 360 3.0 6.0 0.00 0.13 0.00 66 1009.7
20260510064531 43 360 2.0 4.0 0.00 0.13 0.00 66 1009.6
20260510063028 44 360 3.0 5.0 0.00 0.13 0.00 66 1009.2
20260510061524 45 360 1.0 3.0 0.00 0.13 0.00 66 1009.0
20260510060035 46 360 2.0 9.0 0.00 0.13 0.00 64 1008.8
20260510054525 47 360 2.0 11.0 0.00 0.13 0.00 61 1008.7
20260510053014 47 360 4.0 6.0 0.00 0.13 0.00 64 1008.5
20260510051513 47 360 1.0 4.0 0.00 0.13 0.00 65 1008.3
20260510050008 47 360 1.0 5.0 0.00 0.13 0.00 65 1007.9
20260510044505 47 360 1.0 4.0 0.00 0.13 0.00 67 1007.7
20260510043002 48 360 2.0 8.0 0.00 0.13 0.00 66 1007.4
20260510041600 48 360 0.0 1.0 0.00 0.13 0.00 67 1007.2
20260510040058 49 360 1.0 2.0 0.00 0.13 0.13 64 1007.1
20260510034554 51 360 1.0 3.0 0.00 0.13 0.13 60 1006.8
20260510033059 52 360 3.0 5.0 0.00 0.13 0.13 58 1006.7
20260510031550 53 360 2.0 8.0 0.00 0.13 0.13 55 1006.4
20260510030056 55 360 3.0 9.0 0.00 0.13 0.13 52 1006.1
20260510024546 56 360 7.0 13.0 0.00 0.13 0.13 50 1006.0
20260510023047 57 360 6.0 12.0 0.00 0.13 0.13 49 1005.8
20260510021543 57 360 6.0 10.0 0.00 0.13 0.13 48 1005.4
20260510020043 57 360 6.0 14.0 0.00 0.13 0.13 48 1005.1
20260510014540 58 360 7.0 15.0 0.00 0.13 0.13 46 1004.6
20260510013040 59 360 13.0 23.0 0.00 0.13 0.13 44 1004.2
20260510011546 60 344 8.0 16.0 0.00 0.13 0.13 44 1003.5
20260510010039 61 334 6.0 15.0 0.00 0.13 0.13 47 1003.0
20260510004542 61 296 6.0 11.0 0.00 0.13 0.13 49 1002.8
20260510003040 61 331 3.0 8.0 0.00 0.13 0.13 50 1002.4
20260510001536 62 317 6.0 13.0 0.00 0.13 0.13 48 1002.2
20260510000035 62 342 3.0 9.0 0.00 0.13 0.13 48 1002.0
20260509234540 62 300 7.0 14.0 0.00 0.13 0.13 47 1001.9
20260509233036 63 287 7.0 16.0 0.00 0.13 0.13 45 1001.7
20260509231538 63 285 10.0 17.0 0.00 0.13 0.13 44 1001.5